[[{"header":{"parameterUnit":"m.s-1","parameterCategory":1,"la1":30.2991,"la2":30.254,"lo1":-89.0895,"lo2":-89.0444,"dy":0.0017,"dx":0.0017,"nx":28,"ny":28,"refTime":"2023-09-23T21:00:00:Z","depth":0,"parameterNumber":2,"parameterNumberName":"U-component_of_WINDS"},"data":[0,0,0,0,0,0,0,0,0,0,0,0,0,0,0,0,0,0,0,0,0,0,0,0,0,0,0,0,0,0,0,0,0,0,0,0,0,0,0,0,0,0,0,0,0,0,0,0,0,0,0,0,0,0,0,0,0,0,1.0172,1.0173,0,1.0217,1.0218,1.0218,1.0259,1.0259,1.026,1.026,1.0302,1.0303,1.0304,0,0,0,0,0,0,0,0,0,0,0,0,0,1.0117,1.0117,1.0172,1.0173,1.0173,1.0217,1.0218,1.0218,1.0259,1.0259,1.026,1.026,1.0302,1.0303,1.0304,0,0,0,0,0,0,0,0,0,0,0,0,0,1.0149,1.0118,1.0172,1.0199,1.0202,1.0217,1.0218,1.0219,1.0258,1.0259,1.026,1.0261,1.0302,1.0303,1.0304,1.0296,0,0,1.0307,1.0307,0,0,0,0,0,0,0,0,1.0147,1.0151,1.0194,1.0197,1.02,1.0233,1.0214,1.0244,1.0258,1.0237,1.026,1.0261,1.0279,1.0282,1.0288,1.0298,1.0299,1.0307,1.0308,1.0308,1.0308,0,0,0,0,0,0,0,1.0145,1.0149,1.019,1.0195,1.0199,1.0207,1.0212,1.022,1.0253,1.0239,1.0242,1.0247,1.028,1.0287,1.029,1.03,1.0307,1.0308,1.0309,1.0309,1.0302,1.0301,0,0,0,0,0,0,1.0139,1.0147,1.0189,1.0191,1.0175,1.0207,1.0213,1.0222,1.0253,1.0259,1.0246,1.0248,1.0285,1.0288,1.0291,1.0282,1.0308,1.0309,1.031,1.0303,1.0302,1.0301,0,0,0,0,0,0,1.0138,1.0142,1.0187,1.017,1.0176,1.0208,1.0217,1.0222,1.0229,1.0259,1.0264,1.0247,1.0286,1.029,1.0294,1.0284,1.031,1.0311,1.0304,1.0303,1.0301,1.0263,0,0,0,0,0,0,1.0136,1.0142,1.014,1.017,1.0177,1.019,1.0216,1.0223,1.0231,1.0235,1.0261,1.0266,1.0287,1.0292,1.0295,1.0286,1.0311,1.0305,1.0303,1.0302,1.0266,1.0261,1.0257,0,0,0,0,0,1.0134,1.0127,1.014,1.0144,1.0176,1.0189,1.0193,1.0218,1.023,1.0228,1.0246,1.0265,1.0285,1.0292,1.0296,1.0286,1.0306,1.0304,1.0302,1.0268,1.0262,1.0257,0,0,0,0,0,0,1.0095,1.0132,1.0146,1.0149,1.0166,1.0196,1.0194,1.0212,1.0224,1.0227,1.0256,1.0262,1.0262,1.0275,1.0283,1.0279,1.0298,1.0296,1.027,1.0265,1.0261,1.0257,1.0312,0,0,0,0,0,1.0086,1.0096,1.0127,1.0127,1.0134,1.0163,1.0169,1.0187,1.0205,1.0212,1.0231,1.0247,1.0256,1.0262,1.0272,1.0268,1.0273,1.0263,1.0259,1.0255,1.0253,1.025,1.0245,1.0295,1.0295,1.0295,0,0,1.0069,1.0091,1.0095,1.0119,1.0134,1.0141,1.0168,1.0175,1.018,1.0213,1.0218,1.0232,1.0251,1.025,1.0251,1.0261,1.0241,1.0253,1.025,1.025,1.0248,1.0243,1.0239,1.0294,1.0294,1.0294,0,0,1.0042,1.006,1.006,1.0075,1.0097,1.0116,1.0116,1.0144,1.0154,1.016,1.0184,1.019,1.0206,1.0218,1.0226,1.0201,1.0218,1.0204,1.0181,1.0177,1.0173,1.017,1.0159,1.0155,1.0202,1.0202,1.0202,0,1.0017,1.003,1.0058,1.0063,1.0072,1.0103,1.0102,1.0115,1.0139,1.0144,1.0155,1.0175,1.019,1.0192,1.0186,1.0192,1.0191,1.0201,1.0172,1.0169,1.0166,1.0156,1.0152,1.02,1.0201,1.0201,1.0201,0,0.9998,1.0006,1.0004,1.0027,1.0036,1.0038,1.0065,1.007,1.0087,1.0103,1.0107,1.0127,1.0141,1.0143,1.0159,1.0146,1.0151,1.0167,1.0186,1.0159,1.015,1.0146,1.0197,1.0198,1.0199,1.0199,0,0,0.9947,0.9985,0.9983,0.9993,1.002,1.0026,1.0028,1.0043,1.0046,1.0062,1.0063,1.0075,1.009,1.0099,1.0117,1.0114,1.009,1.013,1.013,1.012,1.0074,1.0061,1.0056,1.0102,1.0101,1.0101,1.0072,0,0.9922,0.993,0.9954,0.9954,0.996,0.9989,0.9991,1.0006,1.0022,1.0028,1.0045,1.0053,1.0072,1.0078,1.0076,1.0093,1.0081,1.0096,1.0101,1.0101,1.0094,1.0052,1.0038,1.0009,1.0069,1.0068,1.0068,0,0.9894,0.9908,0.9908,0.9932,0.9936,0.9938,0.9952,0.9959,0.9976,0.9987,0.9997,1.0016,1.0019,1.0038,1.004,1.005,1.0054,1.0062,1.0061,1.0061,1.0081,1.0048,1.0001,0.9996,1.0063,1.0063,1.0064,0,0.9854,0.9872,0.9874,0.9882,0.9912,0.9911,0.9923,0.9942,0.9948,0.996,0.9964,0.9976,0.9982,0.999,1.0011,1.0024,1.0011,1.0032,1.0018,1.0017,1.0013,1.0012,0.9963,1.0018,1.0018,1.0019,1.0019,0,0.9822,0.9821,0.9856,0.9857,0.9856,0.9883,0.988,0.9895,0.9911,0.9913,0.9939,0.9941,0.997,0.9975,0.9992,0.999,0.9993,1.0001,1.0005,0.9997,0.9996,0.9999,1.0,1.0017,1.0018,1.0018,1.0018,0,0.9777,0.9801,0.9804,0.9832,0.9838,0.9836,0.9858,0.9859,0.9876,0.9879,0.9882,0.9908,0.9914,0.9937,0.995,0.9961,0.9953,0.9962,0.9947,0.9949,0.9933,0.9933,0.9883,0.9876,0.9937,0.9937,0.9936,0,0.9754,0.9754,0.9781,0.9785,0.9796,0.9802,0.9809,0.9835,0.9841,0.986,0.9858,0.9867,0.9875,0.9884,0.9903,0.9912,0.9921,0.9902,0.9922,0.9914,0.9917,0.9916,0.9915,0.9897,0.9896,0.9896,0.9895,0,0.9711,0.9722,0.9732,0.9744,0.9751,0.9762,0.9775,0.9776,0.9806,0.981,0.9818,0.9824,0.9837,0.9844,0.9856,0.9867,0.9885,0.9889,0.9886,0.9877,0.9867,0.987,0.9933,0.989,0.989,0.9891,0.9891,0.9891,0.9675,0.9675,0.9693,0.9701,0.9714,0.9724,0.9726,0.9743,0.975,0.9762,0.9777,0.9782,0.9798,0.9816,0.9825,0.9828,0.9838,0.9834,0.9833,0.9831,0.9826,0.9869,0.9831,0.9831,0.9831,0.9831,0.9831,0,0.9631,0.9644,0.9651,0.9668,0.9674,0.9692,0.9706,0.9709,0.9714,0.9727,0.9735,0.9742,0.9749,0.9769,0.9777,0.9776,0.9784,0.9777,0.9776,0.9778,0.9818,0.9819,0.977,0.977,0.977,0.977,0.977,0.977,0.9608,0.9608,0.9622,0.9627,0.964,0.9645,0.9652,0.9661,0.9671,0.9678,0.9685,0.9698,0.9713,0.9723,0.9729,0.9735,0.9736,0.9725,0.9733,0.977,0.9775,0.9781,0.9782,0.9726,0.9726,0.9692,0.9692,0.9692]},{"header":{"parameterUnit":"m.s-1","parameterCategory":1,"la1":30.2991,"la2":30.254,"lo1":-89.0895,"lo2":-89.0444,"dy":0.0017,"dx":0.0017,"nx":28,"ny":28,"refTime":"2023-09-23T21:00:00:Z","depth":0,"parameterNumber":3,"parameterNumberName":"V-component_of_WINDS"},"data":[0,0,0,0,0,0,0,0,0,0,0,0,0,0,0,0,0,0,0,0,0,0,0,0,0,0,0,0,0,0,0,0,0,0,0,0,0,0,0,0,0,0,0,0,0,0,0,0,0,0,0,0,0,0,0,0,0,0,3.1878,3.1878,0,3.1935,3.1936,3.1936,3.1911,3.1909,3.1908,3.1907,3.196,3.1963,3.1965,0,0,0,0,0,0,0,0,0,0,0,0,0,3.1739,3.1742,3.1878,3.1878,3.1879,3.1935,3.1936,3.1936,3.1911,3.1909,3.1908,3.1906,3.1959,3.1962,3.1966,0,0,0,0,0,0,0,0,0,0,0,0,0,3.1798,3.1743,3.1877,3.1873,3.1873,3.1935,3.1936,3.1937,3.1911,3.1909,3.1907,3.1905,3.1958,3.1962,3.1966,3.2033,0,0,3.1979,3.198,0,0,0,0,0,0,0,0,3.1795,3.1803,3.1873,3.1874,3.1874,3.1914,3.1906,3.1969,3.1912,3.1897,3.1907,3.1904,3.1946,3.1951,3.1966,3.2036,3.2038,3.1979,3.1981,3.1983,3.1984,0,0,0,0,0,0,0,3.1791,3.1801,3.19,3.1874,3.1875,3.1866,3.1872,3.1918,3.1932,3.1898,3.1896,3.1904,3.1946,3.1962,3.1967,3.2039,3.1979,3.1983,3.1985,3.1987,3.2163,3.2166,0,0,0,0,0,0,3.1788,3.1797,3.1898,3.1902,3.1829,3.187,3.1877,3.1903,3.1932,3.1934,3.1905,3.1902,3.1956,3.1962,3.1969,3.2048,3.1983,3.1987,3.1989,3.2161,3.2164,3.2166,0,0,0,0,0,0,3.1785,3.1797,3.1896,3.1849,3.1861,3.1875,3.1904,3.1905,3.1922,3.1938,3.1939,3.192,3.1955,3.1963,3.2017,3.2049,3.1989,3.1993,3.2158,3.2162,3.2165,3.2207,0,0,0,0,0,0,3.1781,3.1796,3.1824,3.185,3.1864,3.1945,3.1906,3.1908,3.1929,3.1926,3.1952,3.1954,3.1954,3.2011,3.2021,3.2054,3.1996,3.2156,3.216,3.2164,3.2203,3.2212,3.2219,0,0,0,0,0,3.1776,3.1832,3.1825,3.1837,3.1899,3.1947,3.1955,3.1955,3.1932,3.1959,3.1968,3.1953,3.2044,3.2017,3.2028,3.2062,3.2154,3.2159,3.2164,3.2199,3.221,3.2219,0,0,0,0,0,0,3.1808,3.1836,3.1828,3.1895,3.1919,3.1943,3.1977,3.1967,3.1997,3.1992,3.1989,3.1995,3.2051,3.2062,3.2031,3.2127,3.2095,3.2103,3.2118,3.2129,3.2136,3.2132,3.1999,0,0,0,0,0,3.1823,3.1862,3.1884,3.194,3.1953,3.1963,3.1984,3.1982,3.2006,3.2016,3.203,3.2052,3.2085,3.2108,3.2139,3.2204,3.2208,3.2233,3.2241,3.2248,3.2254,3.2287,3.2298,3.2183,3.2183,3.2183,0,0,3.1854,3.1874,3.1899,3.1947,3.1966,3.2004,3.1972,3.2014,3.2042,3.2022,3.2074,3.2084,3.2109,3.2168,3.2195,3.2179,3.2286,3.2254,3.2259,3.2262,3.2293,3.2304,3.2314,3.2186,3.2186,3.2185,0,0,3.193,3.195,3.1999,3.2018,3.2047,3.2052,3.2064,3.2089,3.2096,3.2148,3.2134,3.2165,3.2224,3.2241,3.2258,3.2339,3.2325,3.2349,3.239,3.2422,3.2431,3.2439,3.2467,3.2477,3.2355,3.2355,3.2355,0,3.1964,3.2024,3.2025,3.2068,3.2089,3.2074,3.2121,3.2139,3.2176,3.219,3.2172,3.2244,3.2259,3.2321,3.2341,3.2355,3.2367,3.2346,3.243,3.2438,3.2446,3.2472,3.2482,3.2358,3.2357,3.2357,3.2357,0,3.2064,3.2105,3.214,3.2178,3.2202,3.2248,3.2253,3.2277,3.2273,3.2279,3.2331,3.235,3.2384,3.2399,3.2394,3.246,3.2449,3.2431,3.2398,3.2459,3.2483,3.2493,3.2362,3.2361,3.236,3.2359,0,0,3.2162,3.2199,3.2212,3.2227,3.2257,3.2288,3.2331,3.2366,3.2386,3.2411,3.2446,3.2495,3.2478,3.2497,3.2494,3.2523,3.2583,3.2501,3.2501,3.2514,3.2654,3.2667,3.2678,3.2574,3.2576,3.2578,3.2651,0,3.224,3.2318,3.2319,3.239,3.2426,3.2411,3.2448,3.2469,3.2476,3.2506,3.2513,3.2548,3.2524,3.2535,3.2562,3.257,3.2611,3.2565,3.2605,3.2606,3.2599,3.2691,3.2705,3.2774,3.2661,3.2663,3.2664,0,3.2341,3.237,3.2445,3.2468,3.2483,3.2517,3.2548,3.2578,3.26,3.2603,3.2623,3.2616,3.2657,3.2623,3.2679,3.2648,3.2664,3.267,3.2673,3.2676,3.2638,3.2696,3.2796,3.2806,3.2679,3.2678,3.2677,0,3.2403,3.2462,3.2514,3.2528,3.2556,3.258,3.2592,3.2612,3.2633,3.2659,3.2671,3.2702,3.2718,3.2741,3.2741,3.2717,3.2796,3.2763,3.2798,3.2798,3.2816,3.2814,3.2919,3.2828,3.2827,3.2827,3.2827,0,3.2489,3.2535,3.2542,3.2574,3.2624,3.2623,3.2672,3.2682,3.27,3.2732,3.272,3.2749,3.2748,3.2777,3.2777,3.2822,3.283,3.2832,3.2831,3.2833,3.2832,3.2843,3.2838,3.283,3.2829,3.2829,3.2828,0,3.2568,3.2575,3.263,3.2652,3.2658,3.2694,3.2711,3.274,3.2746,3.2786,3.2795,3.2803,3.2837,3.2839,3.2878,3.2877,3.2932,3.2927,3.2925,3.2924,3.2958,3.2955,3.3073,3.3087,3.2987,3.2988,3.2989,0,3.2622,3.2657,3.2683,3.2704,3.2718,3.2752,3.2772,3.2772,3.2794,3.2821,3.2846,3.2878,3.2905,3.2959,3.2967,3.2996,3.299,3.3029,3.2994,3.2994,3.2989,3.2987,3.2989,3.3036,3.3037,3.3038,3.3039,0,3.2717,3.2718,3.2749,3.2781,3.2806,3.2831,3.2854,3.2871,3.2873,3.2897,3.2932,3.2953,3.2992,3.3024,3.3052,3.3062,3.305,3.305,3.3059,3.3061,3.3058,3.3059,3.2943,3.3047,3.3046,3.3046,3.3045,3.3045,3.2784,3.2814,3.2836,3.2871,3.2888,3.2909,3.2937,3.2946,3.2976,3.3008,3.3006,3.3044,3.3063,3.3099,3.3112,3.314,3.3126,3.314,3.3144,3.3147,3.315,3.3054,3.3145,3.3145,3.3145,3.3144,3.3144,0,3.2877,3.2891,3.2922,3.2955,3.2981,3.2969,3.2993,3.3015,3.3049,3.3069,3.3095,3.3134,3.3164,3.3174,3.3203,3.3224,3.3219,3.3231,3.3229,3.3232,3.3161,3.315,3.3235,3.3235,3.3235,3.3235,3.3235,3.3235,3.2929,3.2978,3.2982,3.3038,3.305,3.3089,3.3103,3.3122,3.3137,3.3181,3.3207,3.3214,3.3229,3.3258,3.3285,3.3287,3.3298,3.3312,3.3312,3.3246,3.3237,3.3228,3.3217,3.3315,3.3315,3.338,3.338,3.3381]}]]